Regional Weather Roundup
Issued by NWS

Home | Current Version | Previous Version | Graphics & Text | Print | Product List | Glossary On
Versions: 1 2 3 4 5 6 7 8 9 10 11 12 13 14 15 16 17 18 19 20 21 22 23 24 25 26 27 28 29 30 31 32 33 34 35 36 37 38 39 40 41 42 43 44 45 46 47 48 49 50
000
ASUS43 KBIS 261620
RWRND

NORTH DAKOTA REGIONAL WEATHER ROUNDUP
NATIONAL WEATHER SERVICE BISMARCK ND
1100 AM CDT THU MAR 26 2015

NOTE: "FAIR" INDICATES FEW OR NO CLOUDS BELOW 12,000 FEET WITH NO
SIGNIFICANT WEATHER AND/OR OBSTRUCTIONS TO VISIBILITY.


NDZ001>003-009>011-017-261700-
NORTHWEST NORTH DAKOTA

CITY           SKY/WX    TMP DP  RH WIND       PRES   REMARKS
WILLISTON      PTSUNNY   35  28  75 SE3       30.19R
MINOT          MOSUNNY   33  22  63 SE6       30.23R
MINOT AFB      CLOUDY    31  28  89 SE7       30.23R
$$

NDZ018>021-031>035-040>046-261700-
SOUTHWEST NORTH DAKOTA

CITY           SKY/WX    TMP DP  RH WIND       PRES   REMARKS
BISMARCK       CLOUDY    33  24  69 E10       30.22R
DICKINSON      CLOUDY    30  27  88 E7        30.14R
GARRISON         N/A     34  23  64 E10       30.20R
HETTINGER ARPT LGT SNOW  32  29  88 CALM      30.13R FOG
$$

NDZ004>008-012>016-024-026-027-054-261700-
NORTHEAST NORTH DAKOTA

CITY           SKY/WX    TMP DP  RH WIND       PRES   REMARKS
GRAND FORKS    MOSUNNY   28  15  58 N15       30.28R WCI  16
GRND FRKS AFB  MOSUNNY   28  15  57 N14       30.28S WCI  17
DEVILS LAKE    SUNNY     27  16  63 NE7       30.26R WCI  19
$$

NDZ022-023-025-028>030-036>039-047>053-261700-
SOUTHEAST NORTH DAKOTA

CITY           SKY/WX    TMP DP  RH WIND       PRES   REMARKS
FARGO          CLOUDY    28  15  58 N15       30.26R WCI  16
JAMESTOWN      CLOUDY    29  15  56 N14       30.24R WCI  18
$$




USA.gov is the U.S. government's official web portal to all federal, state and local government web resources and services.